Wind_Speed
16 16 20 25 29 29 28 31 25 35 34 33 32 29 22 21 17 15 16 16 15 15 14 13 7 5 6 14 14 17 20 22 17 18 21 21 18 41 28 30 34 31 30 28
22 23 24 30 33 32 32 32 35 35 35 32 32 29 20 15 18 12 13 12 13 14 14 12 6 6 8 9 7 14 18 20 16 15 18 12 14 18 20 22 24 23 24 23
7 9 15 21 18 12 24 33 29 34 31 30 27 16 13 12 17 5 7 9 11 13 16 13 7 6 7 6 8 5 11 12 15 21 22 21 21 20 21 23 23 20 21 20
11 14 4 6 13 17 6 9 18 20 24 23 16 12 10 15 5 4 5 8 11 15 18 18 16 13 4 4 3 7 12 15 11 16 14 20 20 24 24 19 18 24 25 21
5 7 19 22 12 18 8 2 7 13 20 14 12 8 7 2 1 3 8 10 13 16 18 18 18 20 19 13 7 9 8 13 20 21 27 26 21 33 18 23 20 21 21 22
8 4 4 6 12 27 7 4 4 6 9 10 8 5 6 6 4 8 10 12 15 17 17 15 17 18 17 17 13 7 2 7 10 9 22 19 24 21 21 18 25 20 17 19
19 5 10 19 25 2 3 3 5 3 7 7 7 6 7 7 8 8 10 14 15 14 15 17 18 17 17 16 14 18 19 15 8 4 8 13 14 17 27 26 24 28 30 30
14 8 6 17 3 7 4 5 5 7 10 9 10 8 8 9 9 10 11 12 13 14 15 16 16 16 15 15 20 20 19 17 15 14 11 8 3 2 8 10 13 16 21 23
5 6 4 7 11 9 6 6 9 11 12 12 11 12 12 12 10 9 10 10 12 12 13 13 13 14 14 17 17 18 16 15 15 15 15 15 12 11 9 8 5 3 1 3
5 6 6 5 4 4 6 8 12 14 14 14 13 13 12 10 10 9 9 9 10 11 11 11 11 12 13 14 15 15 14 14 15 13 14 12 12 10 10 10 9 8 8 7
8 4 4 3 5 7 8 9 10 11 12 12 11 10 9 8 8 8 8 8 8 9 9 10 10 11 11 12 12 12 11 12 11 10 10 10 10 9 9 8 7 5 4 4
1 0 2 4 6 8 9 8 7 8 9 9 10 9 9 8 7 7 7 7 7 7 7 8 9 10 11 11 11 11 11 11 11 12 11 10 9 9 8 7 7 8 8 8
3 4 3 6 8 6 7 7 6 6 7 8 7 8 7 8 7 6 6 6 7 8 9 10 10 11 11 11 10 10 10 10 10 10 10 10 10 10 11 10 11 11 11 12
5 5 6 6 6 6 6 5 5 6 6 6 6 7 7 6 6 5 5 7 8 9 10 10 11 11 11 11 12 12 12 13 13 13 12 12 12 12 12 12 12 12 13 14
6 7 8 7 6 5 5 5 5 5 5 4 3 3 4 4 4 5 5 6 7 8 9 9 10 11 11 12 12 12 13 13 13 14 14 14 14 15 15 15 16 16 16 16
4 3 4 4 4 4 4 4 4 4 3 2 2 2 2 2 3 3 3 4 5 7 7 9 10 11 12 13 14 15 15 16 16 17 18 18 19 19 20 20 21 22 22 23
4 2 1 1 1 3 4 4 5 5 5 4 3 2 2 2 2 2 4 5 6 7 7 9 11 13 15 16 17 18 19 20 21 23 23 24 24 25 25 26 26 26 27 27
6 6 3 0 2 3 4 4 5 5 5 5 4 3 3 3 2 2 5 6 7 8 10 13 15 16 18 20 21 24 26 28 29 29 30 30 30 30 30 30 30 30 31 31
7 5 3 2 3 5 6 7 7 7 6 5 4 4 3 2 1 3 6 8 10 12 14 15 18 21 24 26 28 29 30 31 32 33 33 33 33 33 32 32 32 32 32 32
4 3 3 3 4 5 5 6 6 6 6 5 4 2 1 1 4 7 9 11 13 15 18 21 23 26 28 29 31 31 32 32 32 32 32 32 32 33 33 32 32 31 31 31
3 3 4 4 4 5 6 6 6 6 5 4 3 2 3 6 8 10 13 15 17 20 23 26 28 30 31 33 33 34 34 34 35 34 34 34 34 33 32 32 32 31 31 31
2 3 4 5 6 7 7 6 7 6 5 4 4 5 8 10 12 15 17 20 23 26 28 30 32 33 34 35 35 35 35 35 35 34 34 33 33 32 32 32 31 31 31 31
3 3 3 4 5 6 7 8 7 5 5 6 8 10 11 14 16 19 22 24 27 29 32 33 34 35 35 35 36 36 36 35 35 34 34 34 33 33 33 32 32 32 32 32
4 4 5 5 6 6 7 7 7 7 8 11 11 13 15 17 20 23 26 27 30 32 34 35 35 35 35 35 35 35 36 36 36 36 36 35 35 34 33 33 32 32 32 31
5 6 7 7 8 9 10 9 9 11 12 13 15 17 19 22 24 26 28 31 33 34 35 36 35 36 37 37 36 36 36 36 37 36 36 35 35 35 34 34 33 32 32 32
6 7 8 9 10 10 11 11 12 13 15 16 18 21 23 25 27 29 32 34 35 36 37 38 38 37 37 37 37 37 37 37 37 37 37 37 36 35 35 35 34 34 34 33
8 10 11 11 11 12 12 13 14 16 17 19 21 23 25 27 30 32 35 36 37 38 39 39 38 38 39 40 40 40 40 40 40 40 39 38 38 38 37 36 34 33 33 34
Wind_Direction
278 274 277 280 282 282 275 271 253 271 272 272 274 287 288 308 316 324 316 318 332 332 329 329 308 291 271 243 230 221 223 236 229 231 247 264 242 226 213 211 214 213 221 230
289 291 292 292 287 282 275 273 268 267 269 267 270 279 269 282 295 318 317 339 356 354 353 348 327 283 267 250 242 235 232 223 220 231 242 214 184 171 195 202 210 217 224 229
289 319 316 292 288 277 288 279 262 250 256 266 262 242 258 269 282 314 346 6 19 23 28 24 9 323 272 252 248 226 226 223 243 236 221 209 193 198 185 196 223 226 218 221
279 308 264 292 295 293 292 240 231 246 247 237 210 230 246 263 300 3 34 37 41 43 43 42 41 29 320 292 256 287 252 241 228 215 232 211 220 196 192 212 223 204 231 231
240 230 281 289 268 345 292 124 183 189 201 189 196 207 232 203 51 71 69 57 48 46 43 43 44 43 31 20 348 317 294 253 218 229 218 224 206 178 216 219 229 229 237 244
191 234 264 284 289 310 187 243 36 186 182 204 200 196 147 120 117 82 61 58 54 45 40 45 51 44 37 32 30 16 22 281 308 266 209 220 193 202 192 208 226 235 244 256
216 271 283 293 307 203 213 307 28 112 166 170 170 155 143 133 113 82 65 60 58 49 43 45 54 51 47 46 45 53 54 52 43 328 260 238 236 211 209 217 233 228 226 236
218 222 284 328 62 110 72 29 71 105 132 151 147 141 131 123 107 88 74 64 59 55 50 51 52 51 53 53 58 58 53 47 49 56 61 72 91 204 231 247 233 240 240 245
177 197 287 14 48 67 66 78 96 100 111 120 128 131 124 113 101 89 78 71 67 62 55 48 51 50 49 59 61 61 56 56 58 57 59 63 63 72 76 79 87 92 123 234
115 110 47 47 43 91 86 99 100 104 108 113 115 116 114 113 103 91 79 66 60 58 54 50 49 47 42 49 56 57 57 58 61 60 65 66 65 61 62 68 72 70 65 64
122 104 77 83 82 96 98 106 103 102 104 107 109 109 107 102 102 99 89 81 70 55 40 34 35 40 38 34 34 33 26 21 24 30 35 41 44 42 35 32 38 41 29 19
103 49 146 143 109 103 97 99 104 104 106 108 107 102 103 99 92 85 78 72 58 49 47 39 29 27 30 27 20 16 15 8 5 6 6 3 2 358 350 345 332 324 320 316
73 70 114 145 146 128 114 105 105 106 101 102 100 108 106 101 97 90 76 56 51 41 26 21 19 15 13 10 16 16 10 4 4 357 353 351 347 342 337 334 330 323 317 313
86 91 101 119 142 146 139 125 116 106 97 95 100 105 102 99 91 79 64 49 31 20 18 16 11 9 8 6 8 10 7 3 1 358 355 351 347 343 337 332 326 320 314 310
84 92 97 105 122 136 137 133 123 115 106 99 92 79 73 69 61 57 49 40 34 26 15 17 11 7 5 2 1 359 354 351 347 343 340 336 334 330 324 320 315 312 308 304
115 84 79 101 134 156 166 169 163 163 160 155 135 102 64 57 66 70 65 55 46 40 17 9 4 354 351 348 344 340 338 335 332 330 327 323 319 315 312 309 306 303 301 299
182 184 347 346 257 217 205 205 204 197 189 183 176 143 130 133 119 119 89 61 42 28 6 356 346 342 339 336 332 329 326 324 322 320 318 316 314 311 308 305 302 299 297 296
192 209 233 193 170 181 188 192 187 178 175 168 165 156 135 130 124 63 43 28 10 355 348 343 337 332 328 326 325 324 323 321 318 315 312 309 307 305 304 302 301 298 296 294
204 216 221 203 183 182 175 174 176 176 176 172 160 151 138 112 35 9 1 353 342 339 333 328 328 327 325 322 319 317 314 312 310 309 307 305 304 303 302 301 301 300 298 296
178 181 168 161 166 179 192 197 183 177 170 164 159 155 160 331 343 342 334 328 323 320 324 326 324 320 316 314 312 311 310 308 306 303 301 300 300 300 300 300 299 298 298 297
127 139 148 165 174 176 173 181 175 171 171 175 186 247 300 318 314 310 312 315 318 319 319 318 317 315 313 312 311 311 310 308 307 306 305 304 303 301 300 298 298 297 296 296
158 169 178 178 183 183 174 179 178 186 194 218 260 279 288 296 305 310 312 314 318 318 315 313 313 313 311 309 309 308 307 306 305 303 302 301 300 298 297 296 294 293 293 292
224 217 210 203 199 197 188 190 195 208 238 258 270 281 293 300 303 308 312 313 312 311 311 312 311 310 310 310 310 308 307 306 305 303 302 301 300 299 297 296 294 293 292 290
237 230 227 224 222 224 219 216 229 250 269 272 278 288 295 300 303 305 305 306 309 310 310 311 312 311 310 308 307 307 306 306 305 304 303 302 301 299 298 296 294 293 291 289
245 243 239 235 232 233 233 240 254 265 274 283 289 295 299 301 302 304 307 308 310 311 312 312 311 310 310 310 309 308 307 306 305 303 302 301 301 300 299 297 295 293 291 289
259 255 250 244 242 241 246 256 267 277 285 293 298 299 300 303 305 307 309 311 312 313 313 313 313 313 313 312 310 309 307 305 303 302 301 299 297 295 294 293 292 291 289 288
253 247 248 253 254 256 264 278 287 292 296 297 297 300 303 306 309 311 313 315 316 315 315 315 316 314 312 311 309 307 305 303 302 300 299 297 296 295 293 292 289 287 286 286
Height
2992 2993 2992 2991 2990 2991 2991 2990 2989 2983 2983 2983 2982 2980 2978 2975 2973 2969 2966 2962 2957 2953 2950 2947 2945 2945 2945 2944 2946 2949 2950 2953 2955 2957 2958 2958 2953 2958 2966 2977 2984 2990 2995 2999
2985 2987 2987 2982 2980 2979 2979 2978 2977 2977 2974 2977 2975 2975 2973 2971 2971 2968 2964 2961 2956 2953 2949 2946 2943 2943 2943 2943 2944 2945 2947 2950 2953 2954 2955 2956 2954 2960 2964 2974 2979 2984 2989 2993
2982 2983 2982 2976 2971 2970 2968 2965 2967 2967 2968 2970 2970 2970 2969 2968 2969 2967 2964 2961 2958 2954 2950 2946 2944 2943 2943 2942 2943 2943 2945 2947 2948 2950 2952 2954 2957 2957 2964 2970 2976 2980 2984 2987
2982 2982 2981 2971 2970 2968 2962 2957 2958 2961 2964 2963 2965 2966 2966 2967 2967 2966 2964 2961 2959 2956 2952 2949 2947 2944 2943 2942 2941 2943 2943 2944 2947 2947 2946 2951 2951 2956 2963 2968 2974 2977 2980 2983
2981 2981 2974 2967 2966 2964 2964 2961 2959 2958 2959 2961 2962 2964 2965 2965 2966 2965 2964 2962 2960 2957 2955 2953 2950 2947 2945 2943 2942 2942 2943 2944 2943 2947 2947 2951 2951 2945 2955 2963 2969 2973 2976 2979
2979 2980 2972 2964 2963 2962 2961 2961 2958 2957 2958 2960 2962 2963 2965 2966 2966 2966 2965 2964 2961 2960 2959 2957 2954 2951 2949 2947 2944 2942 2943 2943 2943 2943 2944 2946 2946 2948 2949 2957 2963 2966 2970 2972
2976 2976 2969 2962 2960 2956 2961 2965 2957 2957 2958 2959 2962 2964 2965 2966 2967 2967 2966 2965 2964 2963 2962 2960 2958 2956 2954 2952 2949 2946 2944 2944 2945 2946 2946 2947 2949 2946 2946 2954 2958 2960 2963 2964
2975 2975 2970 2964 2959 2959 2962 2959 2959 2959 2959 2961 2962 2963 2965 2966 2968 2969 2968 2968 2967 2966 2964 2963 2962 2961 2958 2956 2953 2952 2951 2949 2948 2948 2948 2948 2948 2949 2950 2949 2950 2953 2955 2957
2971 2971 2969 2966 2962 2962 2962 2962 2962 2961 2962 2963 2964 2965 2967 2968 2969 2969 2969 2970 2970 2969 2967 2967 2965 2964 2963 2959 2958 2957 2957 2956 2954 2953 2953 2952 2953 2953 2953 2951 2951 2953 2954 2953
2970 2970 2968 2967 2966 2965 2964 2965 2965 2964 2965 2966 2968 2969 2970 2971 2970 2970 2971 2971 2971 2970 2970 2969 2968 2967 2966 2964 2962 2962 2962 2961 2959 2959 2957 2957 2956 2956 2956 2954 2954 2955 2956 2956
2970 2969 2969 2969 2969 2967 2967 2967 2968 2968 2969 2969 2970 2971 2972 2972 2973 2974 2974 2974 2974 2973 2973 2972 2971 2969 2968 2967 2966 2964 2963 2963 2962 2961 2960 2959 2957 2957 2956 2956 2956 2956 2957 2957
2970 2970 2970 2970 2970 2970 2970 2970 2971 2971 2971 2972 2972 2973 2974 2974 2975 2975 2975 2975 2975 2975 2975 2975 2974 2972 2971 2969 2969 2967 2966 2965 2964 2963 2961 2960 2959 2958 2957 2957 2957 2958 2958 2958
2970 2969 2969 2970 2971 2972 2972 2973 2973 2974 2974 2974 2975 2975 2976 2976 2977 2977 2977 2977 2977 2976 2977 2976 2975 2974 2972 2971 2969 2969 2968 2967 2965 2964 2962 2960 2959 2958 2957 2957 2956 2955 2956 2957
2971 2971 2971 2971 2972 2974 2974 2975 2976 2976 2976 2977 2977 2978 2977 2978 2978 2978 2978 2977 2977 2977 2977 2976 2975 2974 2973 2972 2971 2969 2967 2966 2964 2963 2962 2961 2960 2958 2957 2957 2956 2955 2954 2954
2973 2973 2972 2973 2974 2974 2975 2976 2976 2977 2977 2978 2979 2979 2978 2979 2979 2978 2978 2977 2977 2977 2977 2976 2975 2975 2973 2972 2971 2969 2968 2966 2964 2963 2961 2960 2958 2957 2956 2955 2954 2953 2952 2951
2974 2974 2974 2974 2974 2975 2975 2976 2976 2977 2978 2978 2978 2979 2979 2980 2979 2978 2978 2978 2977 2977 2977 2976 2975 2974 2973 2971 2970 2968 2967 2965 2963 2961 2959 2958 2956 2955 2953 2951 2950 2948 2947 2946
2973 2974 2974 2973 2973 2974 2975 2976 2977 2977 2978 2978 2978 2978 2979 2980 2980 2980 2979 2978 2978 2977 2978 2976 2975 2974 2972 2970 2969 2967 2964 2962 2959 2957 2955 2953 2951 2949 2948 2945 2944 2942 2940 2939
2974 2975 2974 2973 2973 2973 2974 2975 2975 2976 2976 2977 2977 2978 2978 2978 2979 2979 2978 2978 2978 2977 2976 2975 2973 2971 2970 2968 2965 2962 2959 2957 2954 2952 2949 2947 2945 2942 2940 2937 2935 2933 2931 2929
2973 2973 2973 2972 2973 2973 2974 2974 2975 2975 2976 2976 2977 2977 2978 2978 2979 2978 2977 2977 2976 2974 2974 2973 2971 2968 2966 2963 2960 2957 2954 2951 2948 2945 2942 2939 2936 2933 2931 2929 2926 2924 2921 2920
2971 2971 2971 2972 2972 2973 2974 2974 2975 2976 2976 2976 2977 2977 2978 2977 2977 2976 2975 2975 2974 2973 2971 2968 2966 2964 2961 2958 2954 2951 2948 2945 2942 2938 2935 2932 2929 2926 2922 2920 2918 2915 2913 2910
2970 2971 2971 2972 2972 2973 2973 2974 2975 2975 2975 2976 2976 2976 2977 2976 2976 2975 2974 2972 2971 2968 2966 2964 2961 2958 2954 2951 2947 2944 2940 2936 2932 2929 2926 2922 2919 2917 2914 2912 2909 2906 2904 2901
2970 2970 2971 2971 2972 2972 2973 2974 2974 2975 2975 2976 2976 2976 2976 2975 2974 2972 2971 2969 2966 2964 2961 2958 2955 2951 2947 2943 2939 2935 2931 2927 2923 2920 2917 2913 2910 2907 2905 2902 2900 2897 2895 2893
2970 2970 2970 2971 2971 2972 2972 2973 2974 2974 2975 2975 2975 2975 2974 2972 2971 2969 2966 2964 2961 2958 2955 2951 2947 2943 2938 2934 2930 2926 2922 2918 2914 2910 2907 2904 2901 2898 2895 2892 2889 2887 2885 2883
2969 2969 2969 2970 2970 2971 2972 2972 2973 2973 2973 2973 2972 2971 2970 2968 2966 2964 2961 2958 2955 2952 2947 2943 2938 2934 2930 2925 2921 2916 2912 2908 2904 2900 2897 2894 2891 2888 2885 2882 2879 2877 2875 2873
2967 2968 2968 2969 2970 2970 2970 2971 2971 2971 2970 2969 2968 2966 2965 2963 2961 2958 2955 2951 2948 2943 2939 2934 2929 2924 2920 2915 2911 2906 2902 2897 2893 2890 2886 2883 2880 2877 2874 2871 2869 2867 2865 2863
2966 2966 2967 2967 2967 2968 2968 2968 2968 2967 2966 2965 2964 2962 2959 2957 2954 2951 2947 2943 2938 2933 2929 2924 2919 2914 2910 2905 2900 2896 2892 2887 2884 2880 2876 2873 2870 2867 2864 2861 2858 2856 2854 2852
2964 2964 2964 2964 2964 2965 2965 2964 2963 2963 2962 2960 2958 2956 2953 2950 2947 2943 2938 2933 2928 2923 2918 2913 2909 2904 2899 2894 2889 2885 2880 2876 2872 2868 2864 2860 2857 2854 2852 2849 2847 2845 2843 2841